Location: Newark
(44.9333°N, 0.5667°E)
Time: 23:43:49
(UTC+00:00)

ISS - Visible Passes

Search period start: 27 January 2021 00:00
Search period end: 06 February 2021 00:00
Orbit: 418 x 421 km, 51.6° (Epoch: 28 January)

Date Brightness Start Highest point End Pass type
(mag) Time Alt. Az. Time Alt. Az. Time Alt. Az.
27 Jan -2.3 18:35:56 10° WNW 18:38:49 25° N 18:39:13 24° NNE visible
28 Jan -2.2 17:48:24 10° WNW 17:51:18 26° N 17:53:50 12° NE visible
28 Jan -1.3 19:25:38 10° NW 19:26:49 18° NW 19:26:49 18° NW visible
29 Jan -2.5 18:38:16 10° NW 18:41:16 28° N 18:41:27 28° NNE visible
30 Jan -2.3 17:50:51 10° NW 17:53:45 26° N 17:56:07 13° ENE visible
30 Jan -1.5 19:27:42 10° NW 19:29:06 22° NW 19:29:06 22° NW visible
31 Jan -3.3 18:40:21 10° NW 18:43:36 42° NNE 18:43:49 42° NNE visible
01 Feb -2.8 17:53:00 10° NW 17:56:07 33° NNE 17:58:37 14° ENE visible
01 Feb -1.8 19:29:45 10° WNW 19:31:36 29° WNW 19:31:36 29° WNW visible
02 Feb -3.9 18:42:21 10° WNW 18:45:44 87° NNE 18:46:30 51° ESE visible
03 Feb -3.6 17:54:58 10° NW 17:58:19 59° NNE 18:01:32 11° ESE visible
03 Feb -1.5 19:32:10 10° W 19:34:32 23° SW 19:34:32 23° SW visible
04 Feb -2.4 18:44:29 10° WNW 18:47:38 37° SW 18:49:46 17° SSE visible
05 Feb -3.2 17:56:57 10° WNW 18:00:18 60° SW 18:03:38 10° SE visible
